Wind_Speed
5 4 15 19 15 11 11 10 13 19 22 34 38 30 27 22 29 35 30 16 16 13 7 13 19 23 24 31 38 45 45 48 50 52 48 42 41 40 42 39 38 42 43 45
6 12 14 12 8 13 11 14 19 27 33 32 24 31 29 18 22 28 23 16 10 10 13 14 18 21 29 34 34 45 49 48 45 43 40 40 41 42 40 37 37 35 33 37
6 6 12 10 13 20 17 13 26 34 31 16 15 30 9 13 15 14 8 3 6 13 17 20 25 31 32 35 34 37 42 41 38 37 35 34 33 33 35 37 38 35 32 34
4 16 11 11 15 24 15 19 32 26 23 8 22 12 22 17 12 6 3 9 14 22 22 24 28 34 45 46 33 29 38 42 37 36 33 32 33 36 35 36 35 35 35 32
6 9 13 11 21 23 20 35 37 24 23 23 20 6 10 13 6 4 6 12 18 23 23 30 35 37 43 37 28 29 34 32 34 37 37 39 34 32 34 34 33 32 31 32
17 11 14 15 24 23 24 35 24 15 7 4 11 20 11 16 9 10 11 18 20 24 31 35 35 32 34 30 23 27 30 33 33 31 34 37 42 42 38 34 31 28 27 27
10 15 18 15 27 19 27 23 11 4 2 6 30 26 5 10 17 13 24 31 34 30 33 35 34 32 27 27 27 26 29 29 33 36 35 34 40 41 43 35 29 28 28 24
10 6 14 24 24 29 9 11 4 6 4 16 31 6 11 13 10 30 27 25 27 29 30 35 30 29 31 30 29 30 29 29 29 30 32 36 37 40 40 35 29 30 29 27
10 4 16 21 28 17 12 7 15 13 21 20 11 17 24 40 37 39 33 34 33 31 32 29 29 28 29 31 30 31 33 35 34 31 34 37 39 35 36 34 31 30 28 28
9 15 12 21 20 9 10 13 9 7 5 6 14 39 23 39 47 40 41 34 30 31 28 28 29 30 29 33 36 36 36 35 30 31 35 40 33 29 30 31 30 28 27 26
17 10 10 24 16 14 12 11 8 15 13 7 10 13 37 39 42 43 34 36 27 29 30 30 31 31 31 36 38 38 35 32 34 37 35 33 29 27 27 29 29 28 27 28
16 11 16 21 15 14 9 6 10 14 15 24 28 37 17 39 37 36 38 27 24 23 28 30 33 33 34 36 36 37 36 35 36 38 34 32 29 28 29 28 28 27 27 28
16 7 14 5 9 13 23 29 26 24 26 32 20 26 41 38 38 40 33 31 29 32 32 30 32 37 40 41 38 36 38 37 37 34 30 30 31 31 31 31 30 28 27 27
19 9 6 12 21 28 36 32 26 27 29 34 30 38 40 41 40 34 30 33 32 38 25 29 29 36 41 42 40 39 39 38 38 36 33 36 39 37 34 32 30 29 26 33
20 16 10 15 25 20 25 28 22 18 19 22 34 37 39 40 35 38 39 39 43 36 26 34 37 39 41 42 41 39 39 40 41 40 39 38 40 38 36 32 29 27 30 30
20 14 22 31 10 17 24 14 21 21 21 25 31 40 41 41 39 37 43 39 33 28 35 37 38 41 45 44 43 43 43 41 41 40 46 46 43 35 30 28 28 29 29 20
16 18 24 10 23 21 4 21 19 25 25 29 40 34 38 40 40 38 39 30 35 38 36 39 42 45 45 43 44 44 44 48 48 46 46 36 32 28 23 24 25 26 23 11
14 19 15 16 19 5 16 17 23 27 36 42 24 36 41 36 39 37 28 33 34 36 39 43 45 48 45 45 45 46 55 52 45 40 36 32 25 19 16 19 22 20 10 10
15 17 12 7 15 18 7 27 27 31 43 21 30 45 41 36 38 28 27 28 35 40 42 45 46 46 46 47 47 58 46 43 38 32 25 21 16 11 12 17 16 6 5 8
16 16 10 13 4 4 15 25 30 38 27 29 46 42 45 37 40 34 33 32 39 43 46 47 46 48 48 52 56 47 40 34 28 25 23 15 7 6 12 14 6 2 7 7
16 15 9 9 9 13 13 24 37 26 36 50 42 41 40 38 32 36 35 38 42 47 47 47 49 51 55 56 49 42 33 29 25 23 17 7 1 7 12 9 2 2 14 12
9 8 6 8 6 7 20 35 38 39 42 40 35 35 33 33 34 33 36 42 48 48 48 50 53 59 54 47 40 36 30 26 23 15 8 4 1 8 9 6 5 5 23 24
5 9 9 9 15 21 29 30 32 32 35 31 32 33 34 36 35 36 41 47 47 47 50 53 60 53 47 39 35 30 28 24 12 5 5 6 4 6 11 11 4 15 17 15
4 10 14 17 19 25 28 24 25 29 29 28 27 30 34 36 35 38 44 46 46 50 53 62 54 47 40 31 28 27 21 11 3 6 11 6 7 6 7 12 9 6 11 15
7 10 10 18 21 27 24 24 25 28 27 27 26 28 34 33 36 42 43 44 48 52 59 56 46 40 32 27 24 13 13 6 8 16 11 6 9 11 12 11 17 20 20 21
4 10 14 22 25 26 29 28 25 28 28 29 29 29 33 37 39 39 41 45 49 55 60 46 39 34 29 28 18 10 7 11 15 15 9 8 14 14 13 14 18 23 25 38
Wind_Direction
54 41 22 7 15 26 360 330 320 311 321 314 317 306 310 296 276 275 284 272 257 256 263 293 304 320 319 321 318 311 310 310 308 303 302 300 297 294 288 288 282 280 277 272
346 5 360 355 26 8 344 314 318 330 322 313 324 311 307 281 257 262 276 260 293 315 303 305 319 317 317 318 314 314 314 314 308 302 300 296 293 291 290 288 288 285 277 271
184 345 354 9 355 349 348 317 325 318 325 349 319 314 313 310 286 265 277 269 314 328 332 321 309 312 315 315 312 309 312 313 315 309 308 303 299 295 291 284 280 281 283 279
359 350 358 353 341 341 353 321 328 325 323 311 325 289 305 298 300 64 241 321 345 328 324 314 313 309 313 314 317 303 301 308 315 315 313 312 310 305 302 300 298 288 285 283
327 341 342 343 346 343 332 335 340 317 299 301 317 300 60 345 107 158 289 313 320 312 314 319 318 313 316 316 312 294 301 314 317 321 318 318 313 310 309 305 303 301 294 288
342 335 344 334 348 350 338 331 345 309 268 257 47 353 299 300 314 328 345 337 335 326 327 326 320 319 320 320 319 311 315 315 313 306 316 316 316 317 310 308 304 301 297 291
339 313 322 327 345 353 327 353 341 353 220 269 325 330 342 345 337 348 324 323 333 333 328 328 324 326 327 329 327 323 315 307 304 312 310 310 306 309 312 305 302 302 297 290
348 323 327 323 343 333 3 3 358 298 333 299 322 312 339 10 9 343 339 339 326 329 326 328 323 322 326 332 331 327 322 314 307 305 305 302 302 305 309 313 306 306 302 302
342 286 313 314 335 336 320 8 305 279 290 267 271 300 285 298 312 337 333 334 330 331 326 327 319 322 320 323 320 318 314 308 308 312 306 302 305 299 305 307 305 305 302 305
314 305 315 328 343 333 340 346 335 315 310 308 297 306 307 322 324 333 333 330 335 332 329 319 318 319 324 317 315 321 320 319 319 306 308 310 309 304 312 309 307 303 304 307
344 322 302 333 328 306 310 330 309 300 288 291 304 289 305 319 326 331 327 326 330 329 335 331 324 322 319 311 318 324 325 317 312 314 323 318 313 318 318 313 311 306 308 309
331 320 320 331 286 300 347 4 322 328 303 300 292 291 312 319 321 325 325 326 320 330 322 318 323 317 309 318 322 323 325 317 312 316 323 318 319 320 318 316 312 308 306 307
335 324 329 306 322 343 314 312 315 310 302 291 291 291 313 312 317 320 306 330 321 318 318 330 327 314 316 325 323 320 320 322 322 323 325 324 325 319 317 315 313 309 309 300
338 331 298 274 290 293 305 321 323 311 289 291 297 320 331 325 323 317 338 329 320 319 319 320 309 308 320 325 324 321 323 325 325 323 321 322 322 317 311 312 313 311 304 306
333 328 308 288 311 316 303 316 335 343 338 334 327 328 328 321 334 337 326 322 321 323 318 314 322 326 326 327 326 325 324 324 324 322 318 315 314 310 307 306 311 309 311 312
327 319 319 324 348 301 315 339 331 333 333 324 329 325 319 317 323 327 328 326 328 326 326 328 330 329 329 328 328 327 324 324 323 317 313 308 304 300 295 303 310 314 315 313
324 332 335 313 324 335 19 353 354 339 330 326 328 320 326 329 328 322 324 329 330 332 329 332 330 330 329 329 326 325 326 323 318 312 313 312 306 293 288 301 313 318 320 307
336 333 328 303 347 15 342 345 340 332 328 331 314 327 335 324 321 321 323 327 333 334 336 334 332 329 328 328 328 324 320 320 317 317 313 307 298 281 289 312 318 325 326 314
345 344 326 324 328 306 70 349 338 335 326 327 321 323 331 326 323 322 335 331 335 339 337 334 331 328 328 329 324 321 324 322 322 322 321 311 293 275 308 319 328 328 325 342
342 353 327 316 305 308 333 326 319 329 319 310 324 324 326 329 327 331 336 336 338 338 338 334 329 329 328 327 324 324 323 326 324 323 323 308 275 299 324 332 341 274 325 47
319 331 320 299 291 277 315 326 332 341 324 326 325 323 325 325 318 329 331 336 338 338 335 332 331 328 327 327 325 322 326 326 323 323 319 296 253 335 336 341 175 45 53 86
305 315 322 304 279 298 316 337 337 326 326 328 335 336 333 333 337 336 338 338 338 335 334 333 330 328 328 328 326 323 325 319 319 315 318 153 66 356 342 97 110 63 73 74
319 317 304 292 281 322 330 314 323 327 329 336 340 342 340 336 338 339 338 337 336 335 334 334 328 330 333 334 324 324 324 321 326 323 141 133 50 15 98 101 102 108 123 115
248 277 279 304 327 308 310 327 332 331 330 339 341 338 339 334 336 335 337 338 337 337 337 330 337 336 340 336 329 329 333 335 2 130 137 110 49 101 86 131 137 90 147 144
286 288 303 298 306 324 344 345 338 338 340 336 334 340 340 342 342 340 337 339 338 338 334 340 338 341 349 347 341 357 352 12 115 133 126 90 99 109 97 89 91 96 107 105
247 305 322 310 316 316 335 340 336 339 343 345 335 336 345 342 336 338 341 340 340 339 340 341 345 347 10 6 359 349 31 101 125 127 112 99 118 102 108 117 108 98 106 117
Height
3158 3159 3156 3156 3155 3156 3154 3153 3150 3147 3143 3134 3130 3122 3120 3120 3118 3113 3112 3110 3106 3103 3101 3096 3091 3089 3088 3084 3079 3074 3073 3069 3065 3060 3058 3055 3052 3050 3048 3047 3046 3046 3045 3045
3159 3158 3157 3155 3154 3154 3153 3150 3146 3142 3138 3130 3122 3115 3116 3114 3113 3113 3111 3108 3107 3104 3100 3097 3092 3087 3083 3080 3077 3070 3064 3061 3056 3053 3051 3048 3045 3042 3040 3037 3035 3033 3034 3034
3157 3159 3156 3155 3154 3152 3150 3148 3144 3139 3128 3126 3121 3111 3110 3110 3109 3108 3107 3104 3102 3100 3097 3094 3089 3085 3080 3076 3072 3065 3057 3054 3050 3046 3044 3040 3036 3033 3030 3028 3026 3024 3022 3022
3158 3157 3155 3154 3152 3150 3147 3145 3141 3132 3128 3124 3124 3115 3116 3110 3107 3107 3105 3101 3100 3097 3094 3089 3083 3079 3074 3072 3067 3061 3054 3049 3045 3040 3036 3033 3028 3023 3022 3019 3016 3014 3013 3012
3158 3156 3154 3152 3150 3146 3145 3139 3132 3129 3126 3125 3118 3121 3116 3112 3109 3106 3101 3096 3093 3091 3088 3084 3079 3073 3067 3064 3059 3056 3050 3045 3041 3036 3031 3026 3021 3019 3015 3011 3007 3005 3003 3002
3158 3156 3153 3151 3149 3145 3138 3131 3126 3123 3123 3122 3120 3122 3112 3107 3104 3103 3099 3095 3091 3088 3083 3078 3072 3068 3063 3059 3054 3049 3044 3041 3034 3031 3027 3021 3015 3013 3008 3004 2999 2996 2994 2993
3157 3153 3151 3150 3146 3145 3140 3133 3126 3123 3121 3118 3108 3111 3107 3106 3106 3103 3097 3090 3086 3083 3078 3072 3069 3063 3059 3055 3050 3045 3040 3036 3032 3027 3023 3018 3012 3007 3001 2995 2992 2989 2985 2984
3157 3155 3152 3148 3146 3142 3138 3138 3140 3138 3127 3121 3115 3115 3114 3111 3110 3104 3096 3090 3085 3080 3074 3069 3066 3062 3056 3050 3046 3040 3036 3031 3026 3022 3016 3011 3006 3000 2994 2989 2985 2982 2979 2976
3155 3154 3151 3145 3144 3141 3139 3140 3143 3138 3129 3124 3114 3110 3110 3107 3099 3096 3091 3086 3081 3074 3069 3067 3063 3059 3053 3048 3043 3037 3031 3026 3020 3015 3009 3003 2998 2993 2988 2983 2979 2975 2972 2968
3156 3149 3146 3144 3141 3140 3140 3141 3139 3137 3133 3124 3110 3107 3105 3102 3098 3094 3086 3080 3076 3070 3066 3064 3060 3055 3050 3044 3038 3032 3026 3019 3013 3009 3003 2995 2989 2986 2981 2977 2972 2969 2965 2961
3153 3152 3149 3145 3146 3141 3141 3140 3141 3138 3134 3124 3113 3104 3106 3101 3098 3092 3082 3080 3073 3069 3065 3061 3056 3051 3047 3040 3033 3027 3020 3014 3008 3002 2996 2989 2984 2980 2975 2970 2966 2962 2958 2954
3152 3150 3146 3145 3140 3141 3139 3141 3141 3138 3131 3129 3121 3102 3107 3101 3094 3088 3081 3077 3071 3067 3063 3058 3053 3047 3041 3034 3028 3021 3015 3009 3003 2996 2990 2983 2979 2974 2969 2964 2960 2957 2952 2947
3153 3151 3147 3146 3142 3139 3138 3136 3135 3134 3130 3120 3120 3106 3104 3094 3090 3083 3077 3070 3066 3062 3058 3053 3049 3042 3034 3028 3022 3016 3010 3003 2997 2990 2984 2978 2973 2968 2963 2958 2954 2949 2944 2939
3151 3149 3151 3151 3147 3142 3132 3129 3129 3126 3119 3111 3112 3102 3099 3090 3083 3078 3073 3069 3062 3057 3053 3048 3042 3036 3029 3023 3016 3010 3003 2997 2990 2984 2978 2973 2967 2961 2956 2951 2946 2942 2938 2932
3150 3148 3145 3144 3140 3135 3130 3126 3123 3120 3116 3111 3105 3099 3094 3087 3080 3075 3072 3065 3057 3052 3047 3042 3036 3030 3023 3016 3010 3003 2996 2990 2983 2976 2970 2965 2960 2954 2949 2944 2941 2936 2931 2925
3146 3145 3140 3136 3136 3132 3126 3127 3122 3120 3115 3111 3105 3097 3091 3085 3078 3073 3066 3057 3052 3048 3043 3037 3030 3024 3017 3009 3002 2995 2988 2982 2977 2970 2962 2956 2950 2945 2941 2938 2934 2930 2925 2921
3147 3142 3137 3133 3133 3125 3127 3125 3122 3119 3115 3110 3102 3095 3089 3080 3074 3068 3062 3056 3049 3045 3038 3031 3025 3018 3010 3003 2996 2988 2981 2974 2967 2959 2951 2945 2940 2936 2935 2932 2929 2924 2920 2917
3144 3141 3141 3134 3130 3128 3129 3126 3121 3116 3112 3108 3099 3092 3087 3080 3071 3065 3061 3053 3049 3042 3034 3027 3019 3011 3004 2997 2989 2981 2973 2964 2955 2948 2942 2937 2932 2930 2930 2929 2925 2921 2917 2913
3142 3140 3140 3139 3135 3131 3128 3121 3118 3113 3104 3102 3097 3090 3081 3073 3064 3061 3058 3053 3046 3038 3030 3022 3014 3006 2997 2990 2981 2970 2961 2955 2947 2940 2935 2930 2928 2929 2929 2926 2923 2919 2916 2913
3139 3139 3142 3140 3137 3132 3126 3122 3117 3112 3103 3100 3094 3085 3078 3070 3059 3053 3051 3046 3040 3034 3025 3016 3008 2999 2991 2982 2971 2961 2953 2948 2941 2936 2932 2928 2928 2929 2928 2925 2922 2918 2916 2915
3140 3138 3138 3136 3134 3128 3122 3119 3112 3108 3105 3093 3089 3083 3075 3069 3066 3055 3048 3042 3037 3028 3019 3011 3002 2992 2983 2972 2961 2952 2947 2942 2938 2933 2930 2928 2929 2929 2927 2924 2922 2921 2919 2917
3136 3135 3134 3133 3129 3124 3122 3117 3113 3107 3099 3093 3086 3080 3073 3067 3060 3054 3047 3039 3030 3021 3012 3004 2993 2983 2973 2964 2954 2946 2942 2937 2933 2930 2929 2929 2931 2930 2927 2926 2925 2925 2926 2924
3132 3132 3131 3132 3127 3122 3117 3116 3111 3103 3095 3089 3083 3078 3071 3064 3058 3051 3043 3035 3026 3018 3008 2997 2986 2972 2963 2955 2948 2941 2936 2931 2929 2929 2930 2932 2933 2931 2930 2930 2929 2931 2931 2932
3129 3128 3127 3125 3123 3119 3113 3110 3105 3099 3093 3087 3082 3077 3071 3063 3056 3049 3041 3032 3023 3013 3002 2990 2976 2965 2956 2949 2942 2937 2931 2928 2928 2930 2933 2934 2934 2934 2935 2935 2933 2933 2936 2940
3128 3128 3127 3123 3119 3114 3113 3105 3099 3093 3090 3085 3080 3075 3069 3062 3054 3046 3038 3029 3019 3009 2997 2984 2972 2962 2954 2947 2939 2935 2933 2930 2931 2934 2937 2938 2938 2938 2938 2937 2939 2941 2944 2948
3126 3125 3124 3119 3117 3113 3108 3103 3097 3090 3086 3082 3076 3071 3066 3060 3053 3045 3037 3028 3017 3005 2991 2979 2970 2961 2954 2947 2940 2937 2934 2934 2936 2940 2942 2942 2942 2943 2944 2945 2948 2950 2952 2958